TimePST,TemperatureF,Dew PointF,Humidity,Sea Level PressureIn,VisibilityMPH,Wind Direction,Wind SpeedMPH,Gust SpeedMPH,PrecipitationIn,Events,Conditions,WindDirDegrees,DateUTC
12:13 AM,46.4,42.8,87,30.12,10.0,Calm,Calm,-,N/A,,Scattered Clouds,0,2013-11-18 08:13:00
12:25 AM,46.4,42.8,87,30.12,10.0,Calm,Calm,-,N/A,,Mostly Cloudy,0,2013-11-18 08:25:00
12:53 AM,46.0,43.0,89,30.12,10.0,NW,4.6,-,N/A,,Overcast,320,2013-11-18 08:53:00
1:53 AM,48.0,44.1,86,30.11,10.0,Calm,Calm,-,N/A,,Overcast,0,2013-11-18 09:53:00
2:53 AM,46.9,44.1,90,30.12,10.0,Calm,Calm,-,N/A,,Scattered Clouds,0,2013-11-18 10:53:00
3:33 AM,46.4,44.6,93,30.12,10.0,Calm,Calm,-,N/A,,Mostly Cloudy,0,2013-11-18 11:33:00
3:53 AM,46.9,44.1,90,30.13,10.0,NW,3.5,-,N/A,,Overcast,320,2013-11-18 11:53:00
4:53 AM,48.0,45.0,89,30.13,10.0,Calm,Calm,-,N/A,,Overcast,0,2013-11-18 12:53:00
5:53 AM,48.9,45.0,86,30.13,10.0,Calm,Calm,-,N/A,,Overcast,0,2013-11-18 13:53:00
6:53 AM,48.0,45.0,89,30.13,10.0,NE,3.5,-,N/A,,Overcast,40,2013-11-18 14:53:00
7:30 AM,50.0,46.4,87,30.14,10.0,Calm,Calm,-,N/A,,Overcast,0,2013-11-18 15:30:00
7:53 AM,51.1,46.0,83,30.15,10.0,Calm,Calm,-,N/A,,Mostly Cloudy,0,2013-11-18 15:53:00
8:40 AM,51.8,46.4,82,30.16,10.0,Calm,Calm,-,N/A,,Scattered Clouds,0,2013-11-18 16:40:00
8:53 AM,53.1,46.0,77,30.16,10.0,Calm,Calm,-,N/A,,Clear,0,2013-11-18 16:53:00
9:53 AM,54.0,46.0,75,30.15,10.0,Calm,Calm,-,N/A,,Clear,0,2013-11-18 17:53:00
10:53 AM,57.9,45.0,62,30.15,10.0,Variable,3.5,-,N/A,,Clear,0,2013-11-18 18:53:00
11:53 AM,57.0,46.0,67,30.15,10.0,WSW,5.8,-,N/A,,Clear,250,2013-11-18 19:53:00
12:53 PM,59.0,43.0,55,30.12,10.0,SSW,6.9,-,N/A,,Clear,200,2013-11-18 20:53:00
1:53 PM,59.0,44.1,58,30.11,10.0,WSW,10.4,-,N/A,,Clear,250,2013-11-18 21:53:00
2:53 PM,57.0,46.0,67,30.11,10.0,SSW,6.9,-,N/A,,Clear,210,2013-11-18 22:53:00
3:53 PM,55.9,46.0,69,30.10,10.0,SSW,6.9,-,N/A,,Clear,210,2013-11-18 23:53:00
4:53 PM,53.1,46.0,77,30.11,10.0,SW,3.5,-,N/A,,Clear,220,2013-11-19 00:53:00
5:53 PM,52.0,46.9,83,30.13,10.0,SW,3.5,-,N/A,,Clear,220,2013-11-19 01:53:00
6:53 PM,53.1,48.0,83,30.14,10.0,Calm,Calm,-,N/A,,Clear,0,2013-11-19 02:53:00
7:53 PM,50.0,46.0,86,30.13,10.0,NE,3.5,-,N/A,,Clear,40,2013-11-19 03:53:00
8:12 PM,51.8,46.4,82,30.13,8.0,Calm,Calm,-,N/A,,Mostly Cloudy,0,2013-11-19 04:12:00
8:53 PM,51.1,46.0,83,30.14,10.0,Calm,Calm,-,N/A,,Overcast,0,2013-11-19 04:53:00
9:00 PM,50.0,46.4,87,30.14,10.0,NW,3.5,-,N/A,,Overcast,310,2013-11-19 05:00:00
9:30 PM,50.0,44.6,82,30.16,10.0,NW,3.5,-,N/A,,Overcast,310,2013-11-19 05:30:00
9:51 PM,50.0,44.6,82,30.15,10.0,NNW,3.5,-,N/A,,Mostly Cloudy,330,2013-11-19 05:51:00
9:53 PM,50.0,45.0,83,30.14,10.0,NNW,3.5,-,N/A,,Mostly Cloudy,330,2013-11-19 05:53:00
10:01 PM,50.0,44.6,82,30.14,10.0,NNW,3.5,-,N/A,,Scattered Clouds,330,2013-11-19 06:01:00
10:36 PM,50.0,44.6,82,30.13,10.0,Calm,Calm,-,N/A,,Mostly Cloudy,0,2013-11-19 06:36:00
10:53 PM,50.0,45.0,83,30.13,10.0,Calm,Calm,-,N/A,,Overcast,0,2013-11-19 06:53:00
11:35 PM,48.2,44.6,87,30.13,10.0,NW,3.5,-,N/A,,Partly Cloudy,310,2013-11-19 07:35:00
11:53 PM,48.0,44.1,86,30.13,10.0,NW,4.6,-,N/A,,Clear,320,2013-11-19 07:53:00